GIA122 WAMM-WAJJ

Flight info

Callsign GIA122
Flight time N/A
Altitude 41000
Route HALMO W61 BIK W41 KUBIA
Aircraft B738/M-SDE2E3FGHIRWXY/LB1

Departure

Time 2026-04-25 04:25
Airport Sam Ratulangi International Airport (WAMM)

Arrival

Time N/A
Airport Dortheys Hiyo Eluay International Airport (WAJJ)
Time Latitude Longitude Altitude Speed Heading
2026-04-25 03:59 1.54032 124.92335 304 ft 0 kts 271°
2026-04-25 04:15 1.54032 124.92348 304 ft 2 kts 270°
2026-04-25 04:15 1.54032 124.92363 304 ft 2 kts 271°
2026-04-25 04:16 1.54032 124.92378 305 ft 1 kts 270°
2026-04-25 04:16 1.54032 124.92388 305 ft 2 kts 257°
2026-04-25 04:16 1.54038 124.92401 305 ft 2 kts 231°
2026-04-25 04:16 1.54049 124.92411 306 ft 2 kts 206°
2026-04-25 04:17 1.54062 124.92415 306 ft 0 kts 185°
2026-04-25 04:17 1.54068 124.92415 306 ft 0 kts 181°
2026-04-25 04:17 1.54069 124.92415 306 ft 0 kts 181°
2026-04-25 04:19 1.54060 124.92415 306 ft 3 kts 181°
2026-04-25 04:19 1.54027 124.92414 305 ft 5 kts 177°
2026-04-25 04:20 1.53985 124.92427 305 ft 6 kts 155°
2026-04-25 04:20 1.53939 124.92436 305 ft 6 kts 177°
2026-04-25 04:20 1.53888 124.92436 305 ft 7 kts 181°
2026-04-25 04:20 1.53827 124.92436 304 ft 9 kts 180°
2026-04-25 04:21 1.53765 124.92452 304 ft 9 kts 133°
2026-04-25 04:21 1.53751 124.92486 305 ft 0 kts 96°
2026-04-25 04:21 1.53751 124.92487 305 ft 0 kts 97°
2026-04-25 04:21 1.53749 124.92495 305 ft 1 kts 99°
2026-04-25 04:22 1.53749 124.92499 305 ft 0 kts 98°
2026-04-25 04:23 1.53748 124.92500 305 ft 0 kts 98°
2026-04-25 04:23 1.53747 124.92513 305 ft 3 kts 96°
2026-04-25 04:23 1.53745 124.92545 306 ft 5 kts 92°
2026-04-25 04:24 1.53753 124.92582 308 ft 4 kts 53°
2026-04-25 04:24 1.53776 124.92593 308 ft 3 kts
2026-04-25 04:24 1.53777 124.92593 308 ft 0 kts
2026-04-25 04:24 1.53781 124.92593 308 ft 3 kts
2026-04-25 04:25 1.54016 124.92603 309 ft 79 kts
2026-04-25 04:25 1.54889 124.92633 306 ft 163 kts
2026-04-25 04:25 1.56157 124.92667 768 ft 200 kts
2026-04-25 04:25 1.57587 124.92528 1689 ft 216 kts 348°
2026-04-25 04:26 1.59042 124.92082 2538 ft 226 kts 346°
2026-04-25 04:26 1.60570 124.91645 3254 ft 241 kts 348°
2026-04-25 04:26 1.62208 124.91265 4008 ft 254 kts 351°
2026-04-25 04:26 1.63929 124.90901 4706 ft 269 kts 351°
2026-04-25 04:27 1.65709 124.90528 5626 ft 274 kts 352°
2026-04-25 04:27 1.67577 124.90369 6591 ft 274 kts
2026-04-25 04:27 1.69023 124.90731 7355 ft 274 kts 25°
2026-04-25 04:27 1.70489 124.91455 8168 ft 276 kts 31°
2026-04-25 04:28 1.71673 124.92112 8769 ft 280 kts 31°
2026-04-25 04:28 1.73000 124.92838 9475 ft 283 kts 30°
2026-04-25 04:28 1.74480 124.93619 10212 ft 288 kts 29°
2026-04-25 04:28 1.75948 124.94371 10672 ft 302 kts 29°
2026-04-25 04:29 1.78192 124.95491 11575 ft 310 kts 28°
2026-04-25 04:29 1.80113 124.96441 12432 ft 313 kts 28°
2026-04-25 04:29 1.82029 124.97469 13192 ft 318 kts 34°
2026-04-25 04:29 1.83739 124.98893 13935 ft 321 kts 51°
2026-04-25 04:30 1.84908 125.00774 14687 ft 323 kts 68°
2026-04-25 04:30 1.85569 125.02930 15460 ft 325 kts 79°
2026-04-25 04:30 1.85801 125.05164 16171 ft 328 kts 93°
2026-04-25 04:30 1.85374 125.07342 16867 ft 331 kts 110°
2026-04-25 04:31 1.84405 125.09412 17565 ft 335 kts 117°
2026-04-25 04:31 1.83313 125.11464 18224 ft 339 kts 117°
2026-04-25 04:31 1.82181 125.13567 18886 ft 343 kts 117°
2026-04-25 04:31 1.81051 125.15681 19542 ft 346 kts 117°
2026-04-25 04:32 1.79925 125.17812 20158 ft 350 kts 117°
2026-04-25 04:32 1.78788 125.19974 20786 ft 353 kts 117°
2026-04-25 04:32 1.77622 125.22168 21369 ft 357 kts 118°
2026-04-25 04:32 1.76417 125.24359 21931 ft 361 kts 118°
2026-04-25 04:33 1.75195 125.26544 22504 ft 363 kts 118°
2026-04-25 04:33 1.73951 125.28759 23016 ft 368 kts 118°
2026-04-25 04:33 1.72699 125.30991 23639 ft 369 kts 118°
2026-04-25 04:33 1.71441 125.33239 24162 ft 373 kts 118°
2026-04-25 04:34 1.70176 125.35506 24747 ft 374 kts 118°
2026-04-25 04:34 1.68908 125.37781 25224 ft 378 kts 118°
2026-04-25 04:34 1.67663 125.40018 25746 ft 380 kts 118°
2026-04-25 04:34 1.66364 125.42351 26286 ft 381 kts 117°
2026-04-25 04:35 1.65078 125.44662 26779 ft 384 kts 117°
2026-04-25 04:35 1.63780 125.46997 27266 ft 386 kts 117°
2026-04-25 04:35 1.62512 125.49277 27700 ft 389 kts 117°
2026-04-25 04:35 1.61194 125.51648 28107 ft 392 kts 117°
2026-04-25 04:36 1.59858 125.54049 28514 ft 396 kts 117°
2026-04-25 04:36 1.58527 125.56441 29041 ft 396 kts 117°
2026-04-25 04:36 1.57172 125.58876 29353 ft 402 kts 117°
2026-04-25 04:36 1.55828 125.61293 29873 ft 401 kts 117°
2026-04-25 04:37 1.54471 125.63733 30180 ft 406 kts 117°
2026-04-25 04:37 1.53082 125.66231 30636 ft 408 kts 117°
2026-04-25 04:37 1.51710 125.68695 31020 ft 410 kts 117°
2026-04-25 04:37 1.50312 125.71209 31401 ft 413 kts 117°
2026-04-25 04:38 1.48908 125.73731 31755 ft 416 kts 117°
2026-04-25 04:38 1.47495 125.76269 32174 ft 417 kts 118°
2026-04-25 04:38 1.46092 125.78790 32464 ft 422 kts 118°
2026-04-25 04:38 1.44657 125.81370 32904 ft 422 kts 118°
2026-04-25 04:39 1.43226 125.83940 33257 ft 425 kts 118°
2026-04-25 04:39 1.41779 125.86541 33668 ft 427 kts 117°
2026-04-25 04:39 1.40332 125.89140 34014 ft 429 kts 117°
2026-04-25 04:39 1.38866 125.91775 34343 ft 432 kts 117°
2026-04-25 04:40 1.37404 125.94403 34735 ft 433 kts 117°
2026-04-25 04:40 1.35928 125.97055 35006 ft 437 kts 117°
2026-04-25 04:40 1.34462 125.99689 35480 ft 436 kts 117°
2026-04-25 04:40 1.32983 126.02345 35801 ft 438 kts 117°
2026-04-25 04:41 1.31511 126.04990 36416 ft 433 kts 117°
2026-04-25 04:41 1.30156 126.07677 36870 ft 431 kts 112°
2026-04-25 04:41 1.29102 126.10483 37198 ft 430 kts 105°
2026-04-25 04:41 1.28330 126.13366 37635 ft 428 kts 102°
2026-04-25 04:42 1.27687 126.16270 38007 ft 427 kts 101°
2026-04-25 04:42 1.27073 126.19161 38322 ft 427 kts 101°
2026-04-25 04:42 1.26435 126.22045 38635 ft 427 kts 102°
2026-04-25 04:42 1.25753 126.24940 38918 ft 428 kts 102°
2026-04-25 04:43 1.25026 126.27856 39196 ft 429 kts 103°
2026-04-25 04:43 1.24282 126.30720 39435 ft 430 kts 103°
2026-04-25 04:43 1.23513 126.33608 39717 ft 430 kts 104°
2026-04-25 04:43 1.22737 126.36484 39955 ft 430 kts 104°
2026-04-25 04:44 1.21945 126.39384 40149 ft 431 kts 104°
2026-04-25 04:44 1.21155 126.42273 40386 ft 431 kts 104°
2026-04-25 04:44 1.20364 126.45161 40627 ft 431 kts 104°
2026-04-25 04:44 1.19569 126.48064 40836 ft 431 kts 104°
2026-04-25 04:45 1.18780 126.50948 40841 ft 433 kts 104°
2026-04-25 04:45 1.17187 126.56771 40846 ft 433 kts 104°
2026-04-25 04:46 1.15613 126.62522 40843 ft 430 kts 104°
2026-04-25 04:46 1.14027 126.68310 40843 ft 431 kts 104°
2026-04-25 04:47 1.12441 126.74104 40843 ft 431 kts 104°
2026-04-25 04:47 1.10856 126.79895 40846 ft 431 kts 104°
2026-04-25 04:48 1.09266 126.85697 40841 ft 431 kts 104°
2026-04-25 04:48 1.07686 126.91465 40840 ft 431 kts 104°
2026-04-25 04:49 1.06094 126.97274 40840 ft 432 kts 104°
2026-04-25 04:49 1.04507 127.03066 40843 ft 431 kts 104°
2026-04-25 04:50 1.02929 127.08822 40841 ft 431 kts 104°
2026-04-25 04:50 1.01347 127.14597 40849 ft 431 kts 104°
2026-04-25 04:51 0.99772 127.20350 40858 ft 432 kts 104°
2026-04-25 04:51 0.98184 127.26146 40862 ft 432 kts 104°
2026-04-25 04:52 0.96611 127.31889 40865 ft 432 kts 104°
2026-04-25 04:52 0.95030 127.37659 40868 ft 433 kts 104°
2026-04-25 04:53 0.93442 127.43454 40870 ft 433 kts 104°
2026-04-25 04:53 0.91846 127.49271 40872 ft 433 kts 104°
2026-04-25 04:54 0.90267 127.55031 40872 ft 432 kts 104°
2026-04-25 04:54 0.88676 127.60834 40872 ft 432 kts 104°
2026-04-25 04:55 0.87085 127.66642 40873 ft 432 kts 104°
2026-04-25 04:55 0.85512 127.72377 40873 ft 432 kts 104°
2026-04-25 04:56 0.83940 127.78102 40881 ft 432 kts 104°
2026-04-25 04:56 0.82356 127.83876 40891 ft 433 kts 104°
2026-04-25 04:57 0.80771 127.89662 40905 ft 433 kts 104°
2026-04-25 04:57 0.79190 127.95431 40915 ft 432 kts 104°
2026-04-25 04:58 0.77600 128.01227 40921 ft 433 kts 104°
2026-04-25 04:58 0.76021 128.06987 40905 ft 432 kts 104°
2026-04-25 04:59 0.74490 128.12755 40889 ft 432 kts 103°
2026-04-25 04:59 0.73044 128.18597 40869 ft 432 kts 102°
2026-04-25 05:00 0.71621 128.24408 40852 ft 431 kts 103°
2026-04-25 05:00 0.70181 128.30247 40847 ft 431 kts 103°
2026-04-25 05:01 0.68744 128.36047 40849 ft 432 kts 103°
2026-04-25 05:01 0.67296 128.41866 40850 ft 432 kts 103°
2026-04-25 05:02 0.65845 128.47691 40852 ft 432 kts 102°
2026-04-25 05:02 0.64388 128.53534 40852 ft 432 kts 103°
2026-04-25 05:03 0.62946 128.59317 40851 ft 432 kts 103°
2026-04-25 05:03 0.61487 128.65172 40848 ft 431 kts 103°
2026-04-25 05:04 0.60043 128.70962 40845 ft 431 kts 103°
2026-04-25 05:04 0.58598 128.76756 40843 ft 431 kts 103°
2026-04-25 05:05 0.57146 128.82576 40842 ft 432 kts 103°
2026-04-25 05:05 0.55699 128.88384 40843 ft 431 kts 103°
2026-04-25 05:05 0.54966 128.91403 41033 ft 491 kts 102°
2026-04-25 05:06 0.54215 128.94701 40733 ft 472 kts 102°
2026-04-25 05:06 0.53464 128.97800 40866 ft 449 kts 103°
2026-04-25 05:06 0.52719 129.00738 40846 ft 433 kts 103°
2026-04-25 05:07 0.51416 129.05792 40845 ft 421 kts 103°
2026-04-25 05:07 0.50349 129.09967 40849 ft 425 kts 103°
2026-04-25 05:08 0.49139 129.14754 40856 ft 429 kts 103°
2026-04-25 05:08 0.48167 129.18657 40855 ft 432 kts 102°
2026-04-25 05:09 0.47047 129.23116 37575 ft 496 kts 102°
2026-04-25 05:09 0.46254 129.26256 30202 ft 563 kts 104°
2026-04-25 05:09 0.45919 129.27519 27116 ft 573 kts 104°
2026-04-25 05:09 0.45178 129.30814 19512 ft 588 kts 94°
2026-04-25 05:10 0.45257 129.34222 11326 ft 606 kts 84°
2026-04-25 05:10 0.45352 129.35027 7562 ft 623 kts 83°
2026-04-25 05:10 0.45385 129.35281 5339 ft 627 kts 83°
2026-04-25 05:10 0.45546 129.34966 1 ft 29 kts 281°